Presure
109 148 89 119 117 118 158 119 159 155 97 166 184 158 151 176 165 177 198 183 183 208 203 197 194 194 191 172 172 180 184 175 177 177 181 179 192 188 183 240 170 229 233 231 228 240 226 246 133
88 99 101 95 146 155 156 170 118 151 145 157 97 167 169 163 160 179 154 148 168 176 211 209 200 190 196 190 183 188 180 184 190 186 188 199 215 153 199 187 201 201 200 182 169 180 204 209 207
101 137 155 122 133 150 150 141 96 163 109 131 154 154 170 165 159 159 139 161 114 181 151 193 224 212 205 197 195 214 234 237 216 242 217 200 194 190 194 192 186 122 183 186 186 191 192 196 153
148 167 101 114 114 141 90 128 172 109 157 149 163 145 161 167 152 166 161 106 171 102 183 182 239 155 231 237 181 163 218 203 194 188 189 186 188 178 178 173 177 187 172 194 189 184 147 191 194
104 139 100 120 157 83 164 142 126 99 149 148 148 96 163 161 172 143 167 153 118 138 165 163 153 156 153 176 166 199 194 183 177 187 166 184 186 185 180 176 176 175 175 177 177 170 171 159 169
106 129 141 126 152 136 157 156 127 141 97 148 108 158 144 96 147 175 185 161 147 143 142 106 152 163 164 172 153 167 157 140 150 161 162 175 169 157 161 177 179 164 162 175 160 153 154 166 170
109 102 91 102 97 109 147 174 160 164 146 103 115 157 146 149 159 146 162 181 112 107 155 96 153 151 149 165 169 164 157 163 167 149 173 152 153 171 155 164 160 168 167 157 159 167 164 163 164
109 156 140 111 136 165 169 156 99 115 150 151 106 156 143 140 152 162 160 159 175 159 158 155 151 151 153 130 155 151 150 163 156 149 130 126 159 143 163 154 157 172 155 162 172 150 153 167 177
151 113 129 144 122 141 157 148 161 146 154 150 117 154 133 139 158 167 159 148 179 145 157 134 151 162 151 154 157 158 147 152 144 154 159 149 165 160 152 164 154 157 171 158 158 143 164 164 160
135 155 151 145 151 157 153 160 135 142 140 156 154 154 165 163 143 161 159 159 175 174 170 158 158 152 159 144 149 133 150 148 154 153 151 158 155 160 161 154 158 151 161 168 169 160 174 158 169
102 131 127 132 152 142 147 150 151 143 123 155 157 158 156 151 160 157 160 168 179 173 166 168 157 155 149 153 152 144 138 163 148 96 151 142 157 141 154 153 155 172 165 155 159 161 163 162 158
154 101 150 157 161 155 101 151 142 153 149 160 142 161 153 160 160 160 170 179 189 170 178 165 163 166 168 159 153 154 155 153 157 160 158 159 81 154 166 146 166 153 163 167 155 180 153 145 163
151 147 153 126 104 151 133 148 160 154 159 155 149 161 160 165 169 169 187 168 192 175 173 172 170 161 160 168 172 169 154 161 158 150 155 158 164 157 159 157 159 168 167 160 160 163 160 180 174
151 148 150 152 149 121 151 154 151 159 154 153 159 160 167 152 165 161 178 181 189 179 182 176 167 171 170 159 162 170 166 161 157 157 159 165 167 157 168 153 165 163 166 158 165 180 176 170 182
140 152 149 152 155 149 152 157 153 151 157 154 146 161 162 167 169 168 182 181 177 165 200 191 167 167 173 177 179 172 167 164 165 172 168 163 171 163 160 155 164 158 146 169 174 174 175 187 169
160 150 156 152 156 158 159 150 155 158 157 157 165 160 168 156 180 184 173 178 167 171 167 194 163 162 163 176 171 158 171 162 169 177 171 167 175 161 163 164 168 169 181 185 185 184 192 186 185
164 153 156 161 160 162 161 165 160 166 166 173 178 183 174 181 181 174 174 173 168 164 171 169 171 164 162 168 174 171 165 173 168 175 171 173 175 177 180 180 184 181 179 176 192 184 208 190 199
158 164 150 155 168 159 158 172 179 172 181 179 192 181 185 194 187 174 163 167 168 171 192 176 172 162 162 167 170 169 181 182 169 166 163 172 172 184 186 189 187 184 183 187 191 183 193 196 209
157 172 171 164 160 164 179 168 174 177 192 182 178 183 177 166 166 162 170 182 174 182 180 189 185 173 169 168 170 181 173 176 180 174 172 170 184 190 189 183 188 193 193 200 192 202 194 204 204
188 172 179 190 178 157 180 171 165 177 180 175 173 166 166 170 212 224 204 198 187 191 197 190 186 177 174 183 183 183 180 184 182 171 180 192 202 187 190 192 186 184 188 196 199 197 199 198 188
183 175 177 176 179 178 177 178 172 174 170 167 166 165 187 211 215 209 198 197 193 198 198 190 188 181 184 188 190 191 201 178 181 194 196 194 194 192 167 176 184 191 200 195 203 204 189 192 186
177 177 178 179 177 172 167 180 174 179 168 171 169 200 207 191 203 202 199 193 193 190 193 193 195 200 206 201 202 187 191 194 201 196 199 187 181 166 180 193 197 199 195 202 201 189 180 189 194
197 212 221 212 212 211 206 216 210 211 203 198 205 195 196 197 197 189 193 194 195 190 181 182 174 211 198 196 195 194 199 199 195 163 182 185 173 183 206 200 196 202 207 185 190 182 198 192 190
208 205 204 195 195 212 210 204 193 190 191 192 194 195 190 184 195 203 193 185 196 193 193 186 188 203 196 186 187 201 197 203 175 187 176 175 186 200 200 204 208 204 191 185 181 186 187 198 205
193 195 192 192 190 189 198 205 198 194 191 191 191 187 187 183 201 194 186 183 189 195 193 202 180 176 202 191 202 199 212 178 166 187 182 176 202 200 205 214 192 187 185 177 180 187 183 186 188
186 183 185 189 189 185 186 185 186 198 194 188 188 187 189 187 188 190 185 207 196 200 201 189 184 196 212 196 202 202 201 174 181 185 179 199 202 184 216 199 187 184 183 182 183 186 190 180 191
218 221 216 179 175 180 177 192 192 185 200 191 188 186 190 191 193 190 203 203 200 202 202 206 194 200 194 189 214 184 181 178 189 175 182 199 184 182 193 189 180 175 180 180 188 185 192 185 239
193 198 219 210 210 211 189 203 198 192 194 193 192 197 196 196 198 201 203 198 200 184 190 198 201 194 200 188 194 187 185 187 178 180 180 194 183 182 183 185 184 179 182 178 192 191 196 252 246
206 195 190 217 212 208 210 208 206 194 192 182 184 185 193 179 205 198 183 200 187 178 190 203 196 190 195 187 184 193 186 173 180 180 184 192 188 183 179 186 179 180 182 191 187 188 239 248 247
215 198 197 216 209 207 204 203 208 200 198 195 195 189 189 192 195 191 179 186 186 188 193 208 191 189 185 190 184 186 185 184 180 184 184 174 192 173 184 183 184 181 194 183 200 203 237 242 246
Wind_Speed
12 42 17 21 23 20 45 22 44 45 23 51 42 35 37 39 37 33 36 29 20 11 10 7 7 8 9 12 13 12 12 16 16 15 15 16 15 16 18 10 24 8 11 12 11 13 12 12 57
19 25 21 22 43 46 44 53 19 41 40 52 29 41 39 37 35 37 33 27 33 19 18 17 14 12 14 11 13 16 15 16 18 15 13 5 6 4 4 7 7 9 10 15 33 22 8 8 8
23 30 48 28 36 47 48 34 18 54 21 34 52 47 44 33 41 36 23 30 19 34 18 24 18 14 13 13 15 21 13 5 3 4 12 13 8 6 9 9 6 19 3 3 6 8 9 10 48
46 28 21 25 29 39 19 25 49 25 49 43 54 37 50 45 42 41 38 31 35 22 37 32 20 17 14 12 10 12 6 5 6 10 8 5 5 9 8 9 8 6 11 13 11 13 46 16 18
20 32 24 31 51 15 57 37 23 24 46 45 46 29 52 48 48 39 37 38 31 26 36 33 29 24 24 29 23 9 11 18 21 10 18 8 7 8 10 10 12 15 16 16 17 19 20 31 23
23 28 46 31 51 41 51 55 26 44 28 46 30 53 40 25 40 46 41 38 31 32 29 30 27 34 32 32 24 28 26 14 18 20 13 14 13 20 17 16 18 17 18 21 24 28 28 23 24
27 26 21 28 29 30 53 44 53 46 37 30 36 56 44 51 54 40 47 35 31 29 35 24 26 24 27 36 31 26 24 26 22 18 22 18 19 19 22 20 22 23 20 24 25 24 26 26 29
29 56 42 35 33 52 48 55 27 23 47 50 27 53 35 39 55 55 50 48 32 36 37 34 31 26 26 24 29 25 23 26 21 21 14 15 22 20 21 20 19 30 26 25 31 31 32 32 36
56 36 38 51 33 38 53 53 53 36 58 45 38 54 39 41 59 61 53 42 34 26 34 34 34 28 26 23 27 29 26 28 25 28 31 24 31 25 21 27 22 23 37 30 34 32 33 34 38
42 56 59 52 61 61 56 53 29 38 47 59 55 51 62 60 46 61 53 53 44 30 29 34 30 33 30 30 28 27 27 28 28 32 32 34 34 35 35 29 34 33 40 41 40 30 48 37 44
32 42 43 44 62 46 43 54 56 55 37 60 60 57 53 48 60 56 58 63 43 35 35 32 34 31 31 30 30 33 29 28 31 23 32 28 37 33 39 36 38 43 45 35 42 43 45 43 39
54 35 62 59 57 62 31 60 50 61 55 66 37 63 51 60 61 59 68 55 36 42 35 34 32 33 32 30 31 33 39 35 32 31 34 36 26 44 45 30 48 41 51 52 38 55 36 42 54
59 56 54 48 35 61 49 57 64 64 65 62 49 66 63 69 68 68 52 52 35 39 36 34 35 36 35 35 34 32 35 38 38 38 41 42 42 39 46 47 49 53 56 51 51 56 54 67 67
61 59 60 60 56 45 62 66 58 66 66 59 67 65 71 39 64 54 55 50 37 38 36 36 36 36 38 38 40 39 37 38 37 45 47 45 44 44 52 45 57 56 58 51 60 66 65 62 70
49 64 62 66 66 64 66 67 63 63 69 67 52 70 64 69 67 64 50 45 45 42 35 40 35 37 40 42 39 42 41 44 50 47 49 52 54 55 50 46 59 52 44 67 70 64 66 69 63
69 60 68 63 68 68 70 57 65 68 67 69 73 65 69 43 63 49 51 47 45 44 45 42 39 40 41 41 42 41 44 47 50 47 51 55 54 55 59 62 65 68 74 71 70 70 69 64 66
73 63 66 71 70 70 74 74 70 73 71 75 75 71 69 63 59 53 52 49 47 47 48 46 43 43 44 46 44 45 46 49 49 52 54 56 58 61 63 65 67 67 68 66 72 68 71 67 66
69 76 56 62 74 68 67 76 76 73 68 66 58 62 59 55 53 51 45 48 48 49 48 47 46 45 45 48 49 50 52 53 48 50 52 56 59 61 62 62 63 65 68 70 70 69 71 71 68
65 80 80 76 70 72 80 75 74 70 58 52 57 57 58 48 49 45 52 54 48 51 46 44 45 49 49 50 51 53 54 54 53 54 56 59 62 61 57 60 63 65 68 68 69 68 68 68 65
76 82 77 71 85 57 74 71 64 64 57 58 59 55 53 52 54 45 46 48 50 48 44 43 45 47 50 52 54 52 52 53 52 53 58 58 57 55 57 59 60 63 65 67 67 67 65 63 64
76 76 75 73 72 74 73 71 68 67 62 59 60 58 70 54 46 42 45 46 46 42 43 44 45 46 50 52 51 51 48 48 52 52 53 52 53 54 54 59 62 65 64 65 65 65 61 64 65
75 76 74 74 72 71 68 76 69 68 62 63 64 62 51 56 48 45 44 43 42 42 42 43 45 47 48 48 47 47 47 49 50 47 49 49 50 54 58 62 63 63 64 64 63 62 64 70 72
82 71 63 62 60 58 60 51 55 51 52 50 52 56 51 49 47 46 44 43 41 41 41 39 41 44 41 42 45 47 48 47 46 45 47 48 51 57 59 60 60 62 62 58 62 63 72 74 76
67 65 63 60 58 50 56 49 53 53 51 49 49 51 52 52 50 46 44 43 42 39 39 39 39 39 41 40 43 45 44 46 41 45 45 49 55 57 59 60 60 59 57 60 63 67 72 83 86
66 66 65 61 58 55 51 45 50 53 51 49 47 49 50 51 50 47 46 46 45 41 39 38 39 40 39 40 40 42 47 40 46 47 48 50 57 58 58 59 57 58 61 65 70 76 79 84 89
69 69 65 61 61 58 54 52 53 50 50 49 49 49 48 48 47 48 48 44 44 41 37 40 39 39 41 39 40 41 40 42 46 48 50 56 57 55 57 57 59 63 67 71 78 82 85 85 94
60 57 56 63 62 60 57 52 52 53 48 49 51 51 49 48 49 49 47 44 44 40 38 38 38 38 39 41 42 40 42 43 48 48 52 55 54 55 57 59 62 66 72 76 81 85 90 90 73
69 61 51 53 50 51 56 49 48 51 48 51 52 50 48 48 48 47 44 44 44 42 42 39 36 37 40 40 41 41 44 46 46 50 51 53 53 56 59 62 65 69 73 76 83 88 90 77 79
62 64 63 50 49 50 50 48 47 48 51 54 51 49 48 48 45 44 46 44 46 47 43 40 38 39 40 41 41 44 44 44 47 50 53 54 56 57 60 65 67 70 75 82 85 87 83 82 85
60 65 60 48 50 49 49 51 42 46 49 48 46 49 49 47 45 44 46 47 48 46 42 40 39 40 42 44 44 45 46 47 49 53 55 53 60 57 66 67 72 73 80 83 86 88 85 86 91
Wind_Direction
299 340 334 325 339 330 358 342 9 7 2 16 20 7 0 18 13 14 24 22 7 4 8 7 350 331 298 279 281 277 269 268 272 282 287 290 287 288 270 19 265 339 21 10 8 11 357 341 255
323 310 301 331 354 356 357 358 333 2 4 13 354 14 13 6 7 20 17 22 16 5 359 343 340 345 321 295 287 293 290 283 288 288 286 325 45 267 345 303 50 46 42 276 259 268 343 3 318
294 334 339 323 344 350 352 350 347 2 336 355 8 7 10 11 8 13 4 16 17 30 347 8 316 313 314 322 322 307 306 320 10 42 89 93 75 34 64 59 39 274 336 349 308 322 312 335 257
331 334 324 323 324 342 347 337 352 326 1 4 5 360 7 6 5 3 9 351 14 355 32 29 323 14 292 311 356 20 75 68 47 21 44 19 45 354 340 315 311 359 293 6 344 325 265 339 338
283 327 288 319 334 345 340 344 329 343 357 359 3 358 2 4 4 359 357 1 350 353 18 18 18 17 16 17 17 56 34 24 19 28 5 37 39 28 352 347 349 347 340 331 325 300 303 278 294
285 314 323 310 337 329 337 339 344 345 341 0 341 357 355 4 357 358 354 348 352 353 347 341 8 16 12 10 3 17 10 306 357 1 351 2 358 332 327 10 8 324 314 340 292 278 281 304 312
291 279 332 294 314 304 332 339 339 338 353 343 346 350 356 353 354 352 357 344 340 337 351 343 359 359 357 11 13 11 4 7 4 345 2 329 328 339 322 329 332 344 321 301 305 325 317 311 311
288 309 318 314 329 322 328 330 321 331 344 341 326 345 351 344 347 350 349 353 331 335 337 342 349 351 353 342 352 356 352 359 353 338 305 305 337 308 328 315 320 338 303 305 327 288 294 317 319
307 291 315 314 322 321 326 328 331 340 335 342 338 343 346 339 344 343 345 343 333 327 331 334 339 343 342 350 345 346 340 344 337 340 337 328 333 328 313 325 295 316 329 303 307 286 316 315 302
293 302 308 315 315 318 324 322 318 337 329 330 336 339 332 335 337 340 340 339 332 318 317 323 318 327 331 332 337 335 331 332 333 330 328 327 329 326 322 319 320 307 325 317 320 300 318 300 316
285 298 303 309 314 319 312 328 325 323 328 326 327 328 338 340 334 337 335 335 327 320 317 311 319 317 323 322 320 328 329 312 326 309 319 326 314 321 320 321 323 307 311 320 309 310 315 306 295
288 286 303 302 305 312 301 318 321 317 324 315 331 322 334 330 330 332 329 332 313 320 308 310 310 306 306 308 312 311 317 318 311 310 311 310 312 316 306 316 311 321 313 311 308 307 288 289 306
287 293 292 298 296 302 307 312 305 311 310 315 323 320 323 324 324 326 325 328 311 318 309 303 301 309 313 310 303 297 310 306 308 320 318 316 305 311 316 318 315 308 309 311 312 312 306 308 310
290 293 295 297 299 302 304 305 310 307 312 316 316 318 316 333 325 327 323 322 317 318 301 304 309 301 301 312 310 301 299 302 308 310 312 313 304 318 308 313 310 308 309 311 309 307 309 309 303
287 288 289 292 293 298 300 298 304 308 308 310 316 312 316 316 317 318 320 317 320 321 295 300 313 310 306 302 299 299 302 307 306 305 309 309 308 308 312 313 308 309 302 306 306 308 307 303 303
278 288 286 288 290 290 291 298 297 299 301 303 302 308 308 318 313 315 318 316 317 313 318 304 314 315 317 303 302 316 304 312 308 301 305 302 300 307 306 305 304 304 304 306 304 304 304 301 301
277 283 285 286 286 288 290 292 295 296 300 298 299 299 303 306 308 314 315 313 314 315 313 313 308 309 312 311 305 303 309 302 306 301 303 300 297 298 298 301 303 303 302 305 304 305 306 304 304
279 278 282 284 284 287 290 290 290 292 295 297 299 299 300 303 307 311 312 311 309 308 298 304 302 308 311 308 308 308 304 300 305 305 306 304 302 301 303 304 304 303 302 302 304 305 305 307 310
278 275 278 280 284 286 284 290 291 292 295 294 296 300 302 309 310 311 307 304 306 304 302 297 293 295 301 305 306 301 304 306 303 304 304 306 302 304 305 304 302 302 302 305 304 307 308 310 311
277 273 276 276 278 287 282 284 289 289 291 292 295 300 302 307 296 298 295 297 300 302 300 296 294 298 300 297 299 299 301 301 300 304 303 303 305 305 304 303 304 304 305 306 309 310 310 311 305
270 270 272 275 277 277 281 283 285 286 289 293 296 299 298 296 293 296 297 298 301 301 298 300 301 300 299 297 295 296 298 300 301 303 304 305 306 306 308 308 307 306 309 311 311 312 308 311 306
269 269 271 273 275 278 283 281 284 282 289 293 293 290 290 297 296 298 299 302 303 303 302 299 298 295 294 295 295 301 301 301 303 305 305 309 307 308 311 307 308 310 311 312 315 312 309 314 315
276 275 275 276 277 278 278 275 283 281 283 285 283 287 291 293 296 301 303 304 300 301 303 303 304 292 298 299 301 301 303 303 306 305 309 311 311 311 309 310 310 311 313 310 314 311 319 317 315
271 275 276 276 277 278 274 282 280 281 281 282 283 288 294 299 297 300 301 304 301 302 300 301 301 297 302 303 302 299 302 305 311 313 312 314 313 311 312 312 313 314 315 314 313 319 318 321 317
271 271 273 275 276 276 277 276 274 278 281 283 284 287 290 295 295 297 300 302 300 301 300 295 302 303 298 306 302 303 303 310 309 315 314 318 313 313 314 314 316 317 316 313 317 323 321 321 319
266 267 269 272 272 273 276 276 276 274 278 283 284 284 287 291 296 296 299 297 295 298 301 299 301 303 299 306 304 301 302 313 316 315 318 314 313 320 314 319 320 322 323 324 325 323 321 320 319
262 261 263 267 269 272 272 270 273 277 274 280 281 284 288 290 292 294 295 296 297 302 303 300 306 308 308 313 301 315 314 316 317 317 319 315 317 319 320 321 320 321 325 324 322 320 319 319 325
261 264 259 261 260 257 267 261 264 272 273 272 276 281 285 287 287 289 293 295 295 300 302 305 306 309 303 312 307 309 313 317 316 317 316 317 318 320 322 323 324 322 324 321 321 320 318 334 333
259 261 263 257 256 258 256 258 257 265 267 275 278 282 280 285 282 287 289 293 298 300 301 302 307 307 305 308 312 311 313 311 314 316 318 320 320 322 321 325 321 323 324 322 321 319 331 336 337
255 256 258 255 255 256 257 259 261 261 263 267 271 273 277 280 282 286 291 292 293 296 299 296 303 303 305 309 311 313 315 317 316 318 319 312 322 320 323 323 323 323 322 322 320 320 334 339 340